When you browse on this site, cookies collect data to enhance your experience and personalize the content and advertising you see.
Visit our Privacy Policy to learn more. By continuing to use the site, you agree to this use of cookies and data.

Hourly Weather Leon

Today, 8 July, Wednesday

Time Temperature Precipitation Wind Pressure Humidity
00:00 +20°C° 0 mm 1 mps 691 mmHg 68%
01:00 +20°C° 0 mm 1 mps 691 mmHg 68%
02:00 +19°C° 0 mm 2 mps 690 mmHg 68%
03:00 +18°C° 0 mm 2 mps 690 mmHg 68%
04:00 +19°C° 0 mm 2 mps 690 mmHg 64%
05:00 +19°C° 0 mm 2 mps 690 mmHg 60%
06:00 +20°C° 0 mm 2 mps 690 mmHg 57%
07:00 +22°C° 0 mm 3 mps 691 mmHg 49%
08:00 +26°C° 0 mm 3 mps 691 mmHg 41%
09:00 +29°C° 0 mm 4 mps 692 mmHg 34%
10:00 +30°C° 0 mm 4 mps 692 mmHg 32%
11:00 +32°C° 0 mm 4 mps 692 mmHg 29%
12:00 +34°C° 0 mm 4 mps 692 mmHg 27%
13:00 +32°C° 0.3 mm 6 mps 691 mmHg 33%
14:00 +30°C° 0.3 mm 7 mps 691 mmHg 39%
15:00 +28°C° 0.3 mm 9 mps 690 mmHg 44%
16:00 +27°C° 0.4 mm 8 mps 690 mmHg 49%
17:00 +27°C° 0.4 mm 6 mps 690 mmHg 53%
18:00 +26°C° 0.4 mm 4 mps 691 mmHg 57%
19:00 +23°C° 0.6 mm 4 mps 691 mmHg 64%
20:00 +21°C° 0.6 mm 4 mps 691 mmHg 71%
21:00 +19°C° 0.6 mm 4 mps 692 mmHg 78%
22:00 +19°C° 0.1 mm 4 mps 691 mmHg 79%
23:00 +19°C° 0.1 mm 3 mps 691 mmHg 80%

Tomorrow, 9 July, Thursday

Time Temperature Precipitation Wind Pressure Humidity
00:00 +19°C° 0.1 mm 3 mps 691 mmHg 80%
01:00 +18°C° 0 mm 3 mps 691 mmHg 80%
02:00 +18°C° 0 mm 3 mps 691 mmHg 79%
03:00 +18°C° 0 mm 2 mps 691 mmHg 78%
04:00 +17°C° 0 mm 2 mps 691 mmHg 78%
05:00 +17°C° 0 mm 2 mps 691 mmHg 78%
06:00 +17°C° 0 mm 2 mps 691 mmHg 78%
07:00 +20°C° 0 mm 3 mps 692 mmHg 69%
08:00 +22°C° 0 mm 3 mps 693 mmHg 60%
09:00 +26°C° 0 mm 3 mps 693 mmHg 51%
10:00 +27°C° 0 mm 3 mps 693 mmHg 47%
11:00 +29°C° 0 mm 3 mps 693 mmHg 43%
12:00 +30°C° 0 mm 4 mps 693 mmHg 38%
13:00 +31°C° 0 mm 3 mps 693 mmHg 37%
14:00 +31°C° 0 mm 3 mps 693 mmHg 36%
15:00 +31°C° 0 mm 3 mps 693 mmHg 35%
16:00 +30°C° 0 mm 3 mps 693 mmHg 39%
17:00 +29°C° 0 mm 4 mps 693 mmHg 44%
18:00 +28°C° 0 mm 4 mps 692 mmHg 49%
19:00 +26°C° 0.1 mm 4 mps 692 mmHg 60%
20:00 +22°C° 0.1 mm 4 mps 692 mmHg 70%
21:00 +19°C° 0.1 mm 4 mps 693 mmHg 81%
22:00 +19°C° 0 mm 3 mps 692 mmHg 83%
23:00 +18°C° 0 mm 3 mps 692 mmHg 85%

Day after tomorrow, 10 July, Friday

Time Temperature Precipitation Wind Pressure Humidity
00:00 +17°C° 0 mm 3 mps 692 mmHg 86%
01:00 +17°C° 0 mm 2 mps 692 mmHg 85%
02:00 +17°C° 0 mm 2 mps 692 mmHg 83%
03:00 +16°C° 0 mm 2 mps 691 mmHg 82%
04:00 +17°C° 0 mm 2 mps 692 mmHg 81%
05:00 +17°C° 0 mm 2 mps 692 mmHg 79%
06:00 +17°C° 0 mm 2 mps 692 mmHg 78%
07:00 +19°C° 0 mm 2 mps 692 mmHg 72%
08:00 +20°C° 0 mm 2 mps 693 mmHg 66%
09:00 +23°C° 0 mm 2 mps 693 mmHg 59%
10:00 +25°C° 0 mm 2 mps 693 mmHg 56%
11:00 +26°C° 0 mm 2 mps 693 mmHg 52%
12:00 +27°C° 0 mm 2 mps 694 mmHg 48%
13:00 +28°C° 0 mm 2 mps 694 mmHg 47%
14:00 +29°C° 0 mm 2 mps 693 mmHg 45%
15:00 +29°C° 0 mm 2 mps 693 mmHg 43%
16:00 +27°C° 0 mm 2 mps 693 mmHg 50%
17:00 +25°C° 0 mm 3 mps 693 mmHg 56%
18:00 +24°C° 0 mm 3 mps 692 mmHg 63%
19:00 +21°C° 0 mm 3 mps 693 mmHg 68%
20:00 +19°C° 0 mm 4 mps 693 mmHg 74%
21:00 +17°C° 0 mm 4 mps 693 mmHg 79%
22:00 +15°C° 0 mm 4 mps 693 mmHg 80%
23:00 +14°C° 0 mm 3 mps 693 mmHg 82%

11 July, Saturday

Time Temperature Precipitation Wind Pressure Humidity
00:00 +14°C° 0 mm 3 mps 692 mmHg 83%
01:00 +14°C° 0 mm 3 mps 692 mmHg 84%
02:00 +14°C° 0 mm 2 mps 692 mmHg 85%
03:00 +14°C° 0 mm 2 mps 692 mmHg 86%
04:00 +14°C° 0 mm 2 mps 692 mmHg 84%
05:00 +15°C° 0 mm 2 mps 692 mmHg 82%
06:00 +15°C° 0 mm 2 mps 692 mmHg 80%
07:00 +17°C° 0 mm 2 mps 692 mmHg 70%
08:00 +20°C° 0 mm 2 mps 692 mmHg 60%
09:00 +22°C° 0 mm 3 mps 693 mmHg 50%
10:00 +25°C° 0 mm 3 mps 693 mmHg 47%
11:00 +27°C° 0 mm 3 mps 693 mmHg 45%
12:00 +28°C° 0 mm 4 mps 693 mmHg 42%
13:00 +29°C° 0 mm 4 mps 693 mmHg 41%
14:00 +30°C° 0 mm 4 mps 693 mmHg 40%
15:00 +32°C° 0 mm 5 mps 692 mmHg 39%
16:00 +30°C° 0 mm 5 mps 692 mmHg 42%
17:00 +29°C° 0 mm 5 mps 692 mmHg 45%
18:00 +28°C° 0 mm 5 mps 691 mmHg 48%
19:00 +26°C° 0.2 mm 5 mps 691 mmHg 57%
20:00 +23°C° 0.2 mm 4 mps 692 mmHg 65%
21:00 +21°C° 0.2 mm 4 mps 692 mmHg 73%
22:00 +20°C° 1.6 mm 4 mps 692 mmHg 79%
23:00 +19°C° 1.6 mm 4 mps 691 mmHg 85%

12 July, Sunday

Time Temperature Precipitation Wind Pressure Humidity
00:00 +18°C° 1.6 mm 4 mps 691 mmHg 91%
01:00 +17°C° 2.2 mm 5 mps 691 mmHg 88%
02:00 +17°C° 2.2 mm 5 mps 691 mmHg 85%
03:00 +17°C° 2.2 mm 6 mps 691 mmHg 82%
04:00 +18°C° 0 mm 4 mps 691 mmHg 82%
05:00 +18°C° 0 mm 3 mps 691 mmHg 82%
06:00 +19°C° 0 mm 1 mps 691 mmHg 83%
07:00 +21°C° 0 mm 1 mps 691 mmHg 75%
08:00 +21°C° 0 mm 2 mps 692 mmHg 67%
09:00 +24°C° 0 mm 2 mps 692 mmHg 59%
10:00 +26°C° 0 mm 3 mps 693 mmHg 55%
11:00 +27°C° 0 mm 3 mps 693 mmHg 50%
12:00 +29°C° 0 mm 3 mps 693 mmHg 46%
13:00 +29°C° 0.3 mm 3 mps 693 mmHg 45%
14:00 +29°C° 0.3 mm 3 mps 693 mmHg 45%
15:00 +30°C° 0.3 mm 3 mps 693 mmHg 44%
16:00 +29°C° 0.2 mm 3 mps 693 mmHg 48%
17:00 +28°C° 0.2 mm 4 mps 693 mmHg 51%
18:00 +28°C° 0.2 mm 4 mps 693 mmHg 54%
19:00 +25°C° 0.2 mm 4 mps 693 mmHg 63%
20:00 +22°C° 0.2 mm 4 mps 693 mmHg 71%
21:00 +20°C° 0.2 mm 3 mps 693 mmHg 80%
22:00 +19°C° 0 mm 3 mps 693 mmHg 80%
23:00 +19°C° 0 mm 3 mps 693 mmHg 81%

13 July, Monday

Time Temperature Precipitation Wind Pressure Humidity
00:00 +18°C° 0 mm 3 mps 693 mmHg 82%
01:00 +18°C° 0 mm 2 mps 693 mmHg 81%
02:00 +18°C° 0 mm 2 mps 693 mmHg 81%
03:00 +17°C° 0 mm 2 mps 693 mmHg 80%
04:00 +19°C° 0 mm 1 mps 693 mmHg 79%
05:00 +19°C° 0 mm 1 mps 693 mmHg 78%
06:00 +19°C° 0 mm 1 mps 694 mmHg 77%
07:00 +21°C° 0 mm 1 mps 694 mmHg 70%
08:00 +23°C° 0 mm 1 mps 694 mmHg 62%
09:00 +25°C° 0 mm 1 mps 695 mmHg 55%
10:00 +26°C° 0 mm 1 mps 695 mmHg 50%
11:00 +28°C° 0 mm 1 mps 695 mmHg 45%
12:00 +29°C° 0 mm 2 mps 695 mmHg 41%
13:00 +30°C° 0 mm 2 mps 695 mmHg 39%
14:00 +30°C° 0 mm 1 mps 695 mmHg 38%
15:00 +31°C° 0 mm 1 mps 695 mmHg 36%
16:00 +30°C° 0 mm 2 mps 695 mmHg 40%
17:00 +29°C° 0 mm 2 mps 695 mmHg 43%
18:00 +29°C° 0 mm 3 mps 694 mmHg 46%
19:00 +26°C° 0 mm 3 mps 694 mmHg 56%
20:00 +23°C° 0 mm 4 mps 694 mmHg 66%
21:00 +20°C° 0 mm 4 mps 694 mmHg 76%
22:00 +19°C° 0 mm 4 mps 694 mmHg 78%
23:00 +19°C° 0 mm 3 mps 694 mmHg 80%
Show more